| time (UTC) | temp C | wind direction | speed KPH | gust KPH | rain 1hr cm | rain 24hr cm | rain mn cm | humidity % | barometer mb |
| 20260831231534 | 26 | 304 | 8.0 | 19.3 | 0.00 | 0.00 | 0.00 | 33 | 1010.9 |
| 20260831230144 | 27 | 290 | 9.7 | 19.3 | 0.00 | 0.00 | 0.00 | 33 | 1011.0 |
| 20260831224532 | 27 | 320 | 6.4 | 20.9 | 0.00 | 0.00 | 0.00 | 33 | 1011.2 |
| 20260831223104 | 27 | 327 | 8.0 | 22.5 | 0.00 | 0.00 | 0.00 | 35 | 1011.4 |
| 20260831221532 | 26 | 314 | 9.7 | 24.1 | 0.00 | 0.00 | 0.00 | 36 | 1011.5 |
| 20260831220030 | 26 | 338 | 6.4 | 16.1 | 0.00 | 0.00 | 0.00 | 37 | 1011.8 |
| 20260831214530 | 25 | 349 | 8.0 | 19.3 | 0.00 | 0.00 | 0.00 | 37 | 1011.9 |
| 20260831213034 | 25 | 322 | 6.4 | 17.7 | 0.00 | 0.00 | 0.00 | 38 | 1012.1 |
| 20260831211532 | 25 | 310 | 8.0 | 20.9 | 0.00 | 0.00 | 0.00 | 40 | 1012.3 |
| 20260831210103 | 25 | 305 | 8.0 | 16.1 | 0.00 | 0.00 | 0.00 | 40 | 1012.4 |
| 20260831204528 | 25 | 347 | 8.0 | 20.9 | 0.00 | 0.00 | 0.00 | 39 | 1012.6 |
| 20260831203028 | 25 | 340 | 9.7 | 17.7 | 0.00 | 0.00 | 0.00 | 38 | 1012.8 |
| 20260831201532 | 25 | 355 | 9.7 | 17.7 | 0.00 | 0.00 | 0.00 | 38 | 1013.1 |
| 20260831200106 | 25 | 354 | 11.3 | 22.5 | 0.00 | 0.00 | 0.00 | 38 | 1013.2 |
| 20260831194606 | 25 | 349 | 9.7 | 24.1 | 0.00 | 0.00 | 0.00 | 39 | 1013.5 |
| 20260831193139 | 24 | 347 | 9.7 | 22.5 | 0.00 | 0.00 | 0.00 | 40 | 1013.6 |
| 20260831191530 | 23 | 333 | 9.7 | 24.1 | 0.00 | 0.00 | 0.00 | 42 | 1014.0 |
| 20260831190032 | 23 | 314 | 9.7 | 25.7 | 0.00 | 0.00 | 0.00 | 44 | 1014.3 |
| 20260831184530 | 22 | 329 | 6.4 | 17.7 | 0.00 | 0.00 | 0.00 | 47 | 1014.6 |
| 20260831181531 | 21 | 325 | 4.8 | 11.3 | 0.00 | 0.00 | 0.00 | 55 | 1015.1 |
| 20260831180031 | 21 | 289 | 4.8 | 11.3 | 0.00 | 0.00 | 0.00 | 57 | 1015.4 |
| 20260831174528 | 21 | 267 | 3.2 | 8.0 | 0.00 | 0.00 | 0.00 | 59 | 1015.5 |
| 20260831173032 | 20 | 215 | 0.0 | 4.8 | 0.00 | 0.00 | 0.00 | 61 | 1015.6 |
| 20260831171532 | 20 | 136 | 1.6 | 4.8 | 0.00 | 0.00 | 0.00 | 64 | 1015.8 |
| 20260831170031 | 19 | 252 | 1.6 | 8.0 | 0.00 | 0.00 | 0.00 | 68 | 1016.0 |
| 20260831164530 | 19 | 31 | 0.0 | 4.8 | 0.00 | 0.00 | 0.00 | 74 | 1016.1 |
| 20260831163031 | 18 | 22 | 0.0 | 1.6 | 0.00 | 0.00 | 0.00 | 79 | 1016.3 |
| 20260831161608 | 16 | 22 | 0.0 | 1.6 | 0.00 | 0.00 | 0.00 | 83 | 1016.5 |
| 20260831160028 | 15 | 22 | 0.0 | 3.2 | 0.00 | 0.00 | 0.00 | 85 | 1016.6 |
| 20260831153028 | 12 | 135 | 0.0 | 0.0 | 0.00 | 0.00 | 0.00 | 91 | 1016.6 |
| 20260831151531 | 12 | 135 | 0.0 | 0.0 | 0.00 | 0.00 | 0.00 | 93 | 1016.6 |
| 20260831144531 | 8 | 135 | 0.0 | 3.2 | 0.00 | 0.00 | 0.00 | 95 | 1016.4 |
| 20260831143028 | 5 | 135 | 0.0 | 4.8 | 0.00 | 0.00 | 0.00 | 95 | 1016.3 |
| 20260831141607 | 5 | 135 | 0.0 | 6.4 | 0.00 | 0.00 | 0.00 | 95 | 1016.1 |
| 20260831140109 | 4 | 150 | 0.0 | 4.8 | 0.00 | 0.00 | 0.00 | 95 | 1016.1 |
| 20260831134532 | 4 | 157 | 0.0 | 3.2 | 0.00 | 0.00 | 0.00 | 95 | 1016.1 |
| 20260831131532 | 4 | 165 | 1.6 | 4.8 | 0.00 | 0.00 | 0.00 | 94 | 1016.1 |
| 20260831130028 | 4 | 152 | 3.2 | 4.8 | 0.00 | 0.00 | 0.00 | 94 | 1016.1 |
| 20260831124532 | 4 | 155 | 1.6 | 4.8 | 0.00 | 0.00 | 0.00 | 94 | 1016.1 |
| 20260831123029 | 5 | 157 | 1.6 | 3.2 | 0.00 | 0.00 | 0.00 | 94 | 1016.0 |
| 20260831121531 | 5 | 114 | 1.6 | 8.0 | 0.00 | 0.00 | 0.00 | 94 | 1016.0 |
| 20260831120106 | 5 | 127 | 1.6 | 6.4 | 0.00 | 0.00 | 0.00 | 94 | 1016.1 |
| 20260831113107 | 5 | 178 | 0.0 | 3.2 | 0.00 | 0.00 | 0.00 | 94 | 1016.1 |
| 20260831111530 | 5 | 164 | 0.0 | 4.8 | 0.00 | 0.00 | 0.00 | 94 | 1016.2 |
| 20260831110030 | 5 | 163 | 0.0 | 4.8 | 0.00 | 0.00 | 0.00 | 93 | 1016.2 |
| 20260831104531 | 6 | 136 | 0.0 | 0.0 | 0.00 | 0.00 | 0.00 | 93 | 1016.3 |
| 20260831101529 | 6 | 112 | 1.6 | 4.8 | 0.00 | 0.00 | 0.00 | 93 | 1016.3 |
| 20260831100029 | 6 | 134 | 1.6 | 6.4 | 0.00 | 0.00 | 0.00 | 93 | 1016.5 |
| 20260831094532 | 6 | 164 | 1.6 | 4.8 | 0.00 | 0.00 | 0.00 | 92 | 1016.6 |
| 20260831093030 | 6 | 157 | 1.6 | 4.8 | 0.00 | 0.00 | 0.00 | 92 | 1016.8 |
| 20260831091531 | 6 | 157 | 0.0 | 3.2 | 0.00 | 0.00 | 0.00 | 92 | 1016.9 |
| 20260831090029 | 6 | 160 | 1.6 | 9.7 | 0.00 | 0.00 | 0.00 | 92 | 1016.9 |
| 20260831084529 | 6 | 135 | 0.0 | 8.0 | 0.00 | 0.00 | 0.00 | 91 | 1017.0 |
| 20260831083032 | 7 | 135 | 0.0 | 0.0 | 0.00 | 0.00 | 0.00 | 91 | 1017.1 |
| 20260831081530 | 7 | 141 | 1.6 | 6.4 | 0.00 | 0.00 | 0.00 | 91 | 1017.3 |
| 20260831080106 | 7 | 172 | 3.2 | 12.9 | 0.00 | 0.00 | 0.00 | 90 | 1017.3 |
| 20260831074534 | 7 | 178 | 1.6 | 4.8 | 0.00 | 0.00 | 0.00 | 89 | 1017.4 |
| 20260831073030 | 7 | 157 | 1.6 | 3.2 | 0.00 | 0.00 | 0.00 | 89 | 1017.3 |
| 20260831071530 | 7 | 157 | 0.0 | 4.8 | 0.00 | 0.00 | 0.00 | 88 | 1017.5 |
| 20260831070108 | 7 | 157 | 0.0 | 0.0 | 0.00 | 0.00 | 0.00 | 87 | 1017.5 |
| 20260831064606 | 8 | 157 | 0.0 | 0.0 | 0.00 | 0.00 | 0.00 | 86 | 1017.6 |
| 20260831063030 | 8 | 157 | 0.0 | 0.0 | 0.00 | 0.00 | 0.00 | 86 | 1017.6 |
| 20260831061531 | 8 | 157 | 0.0 | 0.0 | 0.00 | 0.00 | 0.00 | 85 | 1017.7 |
| 20260831060031 | 9 | 157 | 1.6 | 4.8 | 0.00 | 0.00 | 0.00 | 83 | 1017.9 |
| 20260831053147 | 10 | 157 | 3.2 | 8.0 | 0.00 | 0.00 | 0.00 | 82 | 1018.1 |
| 20260831051607 | 10 | 148 | 8.0 | 14.5 | 0.00 | 0.00 | 0.00 | 81 | 1018.1 |
| 20260831050030 | 11 | 157 | 0.0 | 4.8 | 0.00 | 0.00 | 0.00 | 80 | 1018.2 |
| 20260831044530 | 11 | 155 | 3.2 | 9.7 | 0.00 | 0.00 | 0.00 | 80 | 1018.2 |
| 20260831043030 | 11 | 156 | 6.4 | 11.3 | 0.00 | 0.00 | 0.00 | 79 | 1018.3 |
| 20260831040031 | 12 | 123 | 3.2 | 6.4 | 0.00 | 0.00 | 0.00 | 74 | 1018.2 |
| 20260831034605 | 13 | 158 | 1.6 | 4.8 | 0.00 | 0.00 | 0.00 | 70 | 1018.1 |
| 20260831033032 | 15 | 212 | 3.2 | 6.4 | 0.00 | 0.00 | 0.00 | 63 | 1018.0 |
| 20260831031532 | 16 | 267 | 4.8 | 9.7 | 0.00 | 0.00 | 0.00 | 57 | 1017.9 |
| 20260831030029 | 17 | 278 | 4.8 | 14.5 | 0.00 | 0.00 | 0.00 | 55 | 1017.9 |
| 20260831023032 | 18 | 269 | 6.4 | 12.9 | 0.00 | 0.00 | 0.00 | 53 | 1017.8 |
| 20260831021608 | 18 | 269 | 8.0 | 16.1 | 0.00 | 0.00 | 0.00 | 51 | 1017.9 |
| 20260831020033 | 18 | 269 | 8.0 | 20.9 | 0.00 | 0.00 | 0.00 | 50 | 1017.8 |
| 20260831014529 | 19 | 259 | 8.0 | 14.5 | 0.00 | 0.00 | 0.00 | 48 | 1017.8 |
| 20260831013030 | 20 | 255 | 9.7 | 17.7 | 0.00 | 0.00 | 0.00 | 47 | 1017.9 |
| 20260831011647 | 21 | 261 | 8.0 | 19.3 | 0.00 | 0.00 | 0.00 | 44 | 1017.9 |
| 20260831004531 | 22 | 271 | 8.0 | 19.3 | 0.00 | 0.00 | 0.00 | 40 | 1017.9 |
| 20260831003029 | 23 | 261 | 8.0 | 19.3 | 0.00 | 0.00 | 0.00 | 39 | 1017.9 |
| 20260831001529 | 23 | 265 | 8.0 | 17.7 | 0.00 | 0.00 | 0.00 | 38 | 1017.9 |
| 20260831000032 | 24 | 318 | 4.8 | 22.5 | 0.00 | 0.00 | 0.00 | 37 | 1017.9 |
| 20260830234532 | 23 | 321 | 3.2 | 12.9 | 0.00 | 0.00 | 0.00 | 37 | 1017.9 |